Regional Weather Roundup
Issued by NWS

Home | Current Version | Previous Version | Text Only | Print | Product List | Glossary Off
Versions: 1 2 3 4 5 6 7 8 9 10 11 12 13 14 15 16 17 18 19 20 21 22 23 24 25 26 27 28 29 30 31 32 33 34 35 36 37 38 39 40 41 42 43 44 45 46 47 48 49 50

000
ASUS43 KFSD 130702
RWRSD

WEATHER ROUNDUP FOR SOUTH DAKOTA
NATIONAL WEATHER SERVICE SIOUX FALLS SD
100 AM CST WED DEC 13 2017

NOTE: "FAIR" INDICATES FEW OR NO CLOUDS BELOW 12,000 FEET WITH NO
SIGNIFICANT WEATHER AND/OR OBSTRUCTIONS TO VISIBILITY.


SDZ001>005-009-010-012>017-130800-
NORTHWEST AND NORTH CENTRAL SOUTH DAKOTA

CITY           SKY/WX    TMP DP  RH WIND       PRES   REMARKS
BUFFALO          N/A     47  22  37 NW38G51   29.80S
FAITH            N/A     50  22  33 NW35G51   29.78R
MOBRIDGE       CLOUDY    50  27  40 NW30G48   29.59R
$$

SDZ012>016-024>037-041>051-057-063-072>074-130800-
SOUTHWEST AND SOUTH CENTRAL SOUTH DAKOTA

CITY           SKY/WX    TMP DP  RH WIND       PRES   REMARKS
RAPID CTY ARPT PTCLDY    51  16  24 NW31G43   29.89S
PIERRE         CLOUDY    53  24  32 NW31G45   29.66F
CUSTER         CLOUDY    43  12  28 NW10G25   29.94R
PHILIP         CLOUDY    51  19  28 W20G31    29.81R
PINE RIDGE     CLOUDY    39  22  50 W5        29.92R
SPEARFISH      CLOUDY    48  16  27 W21G32    29.95F
WINNER         FAIR      54  17  23 W24       29.71S
$$

SDZ004>011-016>023-039-040-130800-
NORTHEAST SOUTH DAKOTA

CITY           SKY/WX    TMP DP  RH WIND       PRES   REMARKS
ABERDEEN       CLOUDY    46  23  40 NW14      29.51S
WATERTOWN      PTCLDY    39  26  59 W18       29.44F
BROOKINGS        N/A     38  25  59 MISG        N/A
SISSETON         N/A     45  25  45 W23G31    29.41F
$$

SDZ017-020-022-023-036>040-048>070-130800-
SOUTHEAST SOUTH DAKOTA

CITY           SKY/WX    TMP DP  RH WIND       PRES   REMARKS
SIOUX FALLS    CLOUDY    35  24  64 SW5       29.53F
HURON          PTCLDY    49  21  33 NW25G37   29.53F
CHAMBERLAIN    CLOUDY    52  21  30 W20G26    29.66S
MITCHELL       PTCLDY    45  23  42 W16       29.58F
YANKTON        CLOUDY    48  21  34 W15       29.61F
$$

ABBREVIATIONS USED IN REMARKS
   TC - TEMPERATURE IN CELSIUS
  WCI - WIND CHILL INDEX
   HX - HEAT INDEX
  VSB - VISIBILITY





USA.gov is the U.S. government's official web portal to all federal, state and local government web resources and services.